DW7831 Weather Reports


time (UTC)temp
F
wind
direction
speed
knots
gust
knots
rain 1hr
in
rain 24hr
in
rain mn
in
humidity
%
barometer
mb
20260906084543 57 22 0.0 0.0 0.00 0.00 0.01 100 1014.4
20260906083039 57 22 0.0 0.0 0.00 0.00 0.01 100 1014.2
20260906081635 57 22 0.0 0.0 0.00 0.00 0.01 100 1014.0
20260906080031 57 22 0.0 0.0 0.00 0.00 0.01 100 1013.9
20260906074528 57 22 0.0 0.0 0.00 0.00 0.01 100 1014.0
20260906073024 58 22 0.0 0.0 0.00 0.00 0.01 100 1014.0
20260906071618 58 22 0.0 0.0 0.00 0.00 0.01 100 1013.9
20260906070022 58 22 0.0 0.0 0.00 0.00 0.01 100 1014.1
20260906064512 58 22 0.0 0.0 0.00 0.00 0.01 100 1014.1
20260906063006 59 22 0.0 0.0 0.00 0.00 0.01 100 1014.1
20260906061602 59 22 0.0 0.0 0.00 0.00 0.00 100 1014.0
20260906060100 59 22 0.0 0.0 0.00 0.00 0.00 100 1014.0
20260906054609 59 22 0.0 0.0 0.00 0.00 0.00 100 1014.4
20260906053051 59 22 0.0 0.0 0.00 0.00 0.00 100 1014.5
20260906051547 59 22 0.0 0.0 0.00 0.00 0.00 100 1014.7
20260906050044 59 22 0.0 0.0 0.00 0.00 0.00 100 1014.7
20260906044539 59 22 0.0 0.0 0.00 0.00 0.00 100 1014.7
20260906043035 60 22 0.0 0.0 0.00 0.00 0.00 100 1014.5
20260906041531 59 22 0.0 0.0 0.00 0.00 0.00 100 1014.5
20260906040040 59 22 0.0 0.0 0.00 0.00 0.00 100 1014.5
20260906034524 59 22 0.0 0.0 0.00 0.00 0.01 100 1014.4
20260906033020 59 22 0.0 0.0 0.00 0.00 0.01 100 1014.5
20260906031552 59 22 0.0 0.0 0.00 0.00 0.01 100 1014.3
20260906030014 59 22 0.0 0.0 0.00 0.00 0.01 100 1014.4
20260906024532 59 22 0.0 0.0 0.00 0.00 0.01 100 1014.2
20260906023004 60 22 0.0 0.0 0.00 0.00 0.01 100 1014.1
20260906021501 60 22 0.0 0.0 0.00 0.00 0.01 100 1014.1
20260906020055 60 22 0.0 0.0 0.00 0.00 0.01 100 1014.0
20260906014554 61 22 0.0 0.0 0.00 0.00 0.01 100 1014.0
20260906013050 61 22 0.0 0.0 0.00 0.00 0.01 100 1014.0
20260906011543 61 22 0.0 0.0 0.00 0.00 0.01 100 1013.9
20260906010048 61 22 0.0 0.0 0.00 0.00 0.01 100 1013.9
20260906004538 61 22 0.0 0.0 0.00 0.00 0.01 100 1013.8
20260906003032 61 22 0.9 0.0 0.00 0.00 0.01 100 1013.7
20260906001534 61 54 0.0 0.0 0.00 0.00 0.00 100 1013.7
20260906000026 62 63 0.0 0.0 0.00 0.00 0.00 100 1013.5
20260905234521 62 63 0.0 0.0 0.00 0.00 0.00 100 1013.4
20260905233017 62 63 0.0 0.0 0.00 0.00 0.00 100 1013.5
20260905231513 62 63 0.0 0.0 0.00 0.00 0.00 100 1013.5
20260905230017 63 63 0.0 0.0 0.00 0.00 0.00 5 1013.2
20260905224516 64 63 0.9 0.0 0.00 0.00 0.00 11 1013.3
20260905223101 64 60 0.9 0.0 0.00 0.00 0.00 24 1013.1
20260905221556 65 86 0.0 0.0 0.00 0.00 0.00 36 1012.7
20260905220054 66 98 0.9 0.0 0.00 0.00 0.00 48 1012.4
20260905214552 69 32 0.9 0.0 0.00 0.00 0.00 52 1012.3
20260905213048 70 313 0.0 0.0 0.00 0.00 0.00 51 1012.2
20260905211559 69 313 0.9 0.0 0.00 0.00 0.00 50 1012.1
20260905210051 68 313 0.9 0.0 0.00 0.00 0.00 50 1012.2
20260905204537 68 340 0.9 0.0 0.00 0.00 0.00 50 1012.1
20260905203029 68 338 0.9 0.0 0.00 0.00 0.00 50 1012.1
20260905201532 68 344 0.0 0.0 0.00 0.00 0.00 51 1012.0
20260905200022 68 355 0.9 0.0 0.00 0.00 0.00 53 1011.9
20260905194518 69 355 0.9 0.0 0.00 0.00 0.00 54 1011.9
20260905193014 69 12 0.9 0.0 0.00 0.00 0.00 54 1011.9
20260905191510 69 360 2.6 0.0 0.00 0.00 0.00 55 1011.8
20260905190007 70 16 1.7 0.0 0.00 0.00 0.00 54 1011.7
20260905184502 69 27 1.7 0.0 0.00 0.00 0.00 54 1011.5
20260905183059 69 46 1.7 0.0 0.00 0.00 0.00 54 1011.8
20260905181555 70 19 1.7 0.0 0.00 0.00 0.00 53 1011.8
20260905180100 70 24 1.7 0.0 0.00 0.00 0.00 53 1011.7
20260905174553 70 26 1.7 0.0 0.00 0.00 0.00 53 1011.7
20260905173057 69 27 0.9 0.0 0.00 0.00 0.00 53 1011.7
20260905171540 70 310 0.9 0.0 0.00 0.00 0.00 51 1011.8
20260905170035 68 39 1.7 0.0 0.00 0.00 0.00 51 1011.9
20260905164531 69 57 0.9 0.0 0.00 0.00 0.00 51 1012.0
20260905163026 68 346 1.7 0.0 0.00 0.00 0.00 50 1012.0
20260905161522 67 14 1.7 0.0 0.00 0.00 0.00 50 1012.0
20260905160021 67 15 0.0 0.0 0.00 0.00 0.00 48 1012.0
20260905154517 66 15 0.0 0.0 0.00 0.00 0.00 48 1012.0
20260905153012 66 15 0.9 0.0 0.00 0.00 0.00 46 1012.1
20260905151508 65 20 1.7 0.0 0.00 0.00 0.00 46 1012.3
20260905150003 66 355 7.8 0.0 0.00 0.00 0.00 46 1012.3
20260905144601 0 0.0 0.0 0.00 0.00 0.00 1012.1
20260905143055 0 0.0 0.0 0.00 0.00 0.00 1012.1
20260905141551 0 0.0 0.0 0.00 0.00 0.00 1011.9
20260905140050 0 0.0 0.0 0.00 0.00 0.00 1011.9
20260905134556 0 0.0 0.0 0.00 0.00 0.00 1011.9
20260905133044 0 0.0 0.0 0.00 0.00 0.00 1012.2
20260905131536 0 0.0 0.0 0.00 0.00 0.00 1012.3
20260905130031 0 0.0 0.0 0.00 0.00 0.00 1012.5
20260905124535 0 0.0 0.0 0.00 0.00 0.00 1012.7
20260905123022 0 0.0 0.0 0.00 0.00 0.00 1012.7
20260905121519 0 0.0 0.0 0.00 0.00 0.00 1012.7
20260905120016 0 0.0 0.0 0.00 0.00 0.00 1012.2
20260905114511 0 0.0 0.0 0.00 0.00 0.00 1012.1
20260905113007 0 0.0 0.0 0.00 0.00 0.00 1012.1
20260905111506 0 0.0 0.0 0.00 0.00 0.00 1012.0
20260905110111 0 0.0 0.0 0.00 0.00 0.00 1011.9
20260905104556 57 325 0.0 0.0 0.00 0.00 0.00 100 1011.8
20260905103052 57 325 0.0 0.0 0.00 0.00 0.00 100 1011.6
20260905101601 57 325 0.0 0.0 0.00 0.00 0.00 100 1011.4
20260905100043 57 325 0.0 0.0 0.00 0.00 0.00 100 1011.4
20260905094539 57 325 0.0 0.0 0.00 0.00 0.00 100 1011.4
20260905093035 57 325 0.0 0.0 0.00 0.00 0.00 100 1011.4
20260905091530 57 325 0.0 0.0 0.00 0.00 0.00 100 1011.4
20260905090031 57 325 0.0 0.0 0.00 0.00 0.00 100 1011.4